Simultaneous Nadir Overpasses (SNOs) Predictions

Prediction of SNOs between NOAA-19 and TERRA Satellite Orbit:

Table of predicted SNOs for the next 14.0 days since TLE Epoch: 4/19/2013
Index Date (NOAA-19) Time (NOAA-19) Lat,Lon (NOAA-19) SZA (NOAA-19 ) Date (TERRA) Time (TERRA) Lat,Lon (TERRA) SZA (TERRA ) Distance(km) Time Diff (sec)
1 04/20/2013 06:07:08 70.18, 86.89 58.50 04/20/2013 06:08:16 70.08, 88.77 58.39 72.00 68
2 04/20/2013 06:57:51 -69.33,-104.56 122.38 04/20/2013 06:57:57 -69.35,-104.58 122.36 2.31 6
3 04/20/2013 07:48:43 68.62, 63.66 56.91 04/20/2013 07:47:34 68.69, 62.22 56.97 58.95 69
4 04/22/2013 10:51:27 69.96, 16.15 57.53 04/22/2013 10:52:37 69.83, 17.35 57.39 48.42 70
5 04/22/2013 11:42:14 -69.35,-175.67 123.10 04/22/2013 11:42:14 -69.33,-175.69 123.13 2.88 0
6 04/22/2013 12:33:02 68.40, -7.13 55.95 04/22/2013 12:31:54 68.50, -9.10 56.03 81.20 68
7 04/24/2013 15:35:46 69.75, -54.61 56.59 04/24/2013 15:36:56 69.67, -53.92 56.51 27.77 70
8 04/24/2013 16:26:36 -69.32, 113.29 123.86 04/24/2013 16:26:30 -69.34, 113.26 123.84 2.58 6
9 04/26/2013 20:20:04 69.50,-125.30 55.62 04/26/2013 20:21:15 69.51,-125.21 55.63 3.91 71
10 04/26/2013 21:10:59 -69.35, 42.17 124.54 04/26/2013 21:10:46 -69.35, 42.20 124.55 1.41 13
11 04/29/2013 01:04:26 69.46, 163.67 54.89 04/29/2013 01:05:32 69.45, 163.64 54.88 1.87 66
12 04/29/2013 01:55:21 -69.33, -28.89 125.25 04/29/2013 01:55:02 -69.34, -28.87 125.24 1.02 19
13 05/01/2013 05:48:49 69.48, 92.56 54.24 05/01/2013 05:49:47 69.48, 92.62 54.24 2.30 58
14 05/01/2013 06:39:43 -69.32, -99.95 125.93 05/01/2013 06:39:18 -69.32, -99.96 125.94 0.50 25
15 05/03/2013 10:33:11 69.46, 21.51 53.56 05/03/2013 10:34:03 69.45, 21.51 53.56 0.64 52
16 05/03/2013 11:24:05 -69.32,-171.02 126.59 05/03/2013 11:23:34 -69.29,-171.06 126.62 3.05 31




NCC Satellite Simultaneous Nadir Overpasses (SNOs) Prediction Service
